Regional Weather Roundup
Issued by NWS

Home | Current Version | Previous Version | Graphics & Text | Print | Product List | Glossary On
Versions: 1 2 3 4 5 6 7 8 9 10 11 12 13 14 15 16 17 18 19 20 21 22 23 24 25 26 27 28 29 30 31 32 33 34 35 36 37 38 39 40 41 42 43 44 45 46 47 48 49 50
000
ASUS43 KLSX 182107
RWRMO

WEATHER SUMMARY FOR MISSOURI
NATIONAL WEATHER SERVICE SPRINGFIELD MO
300 PM CST SAT NOV 18 2017

NOTE: "FAIR" INDICATES FEW OR NO CLOUDS BELOW 12,000 FEET WITH NO
       SIGNIFICANT WEATHER AND/OR OBSTRUCTIONS TO VISIBILITY.
       CURRENT SKY AND/OR WEATHER CONDITIONS ARE NOT AVAILABLE FOR
       CHILLICOTHE AND FARMINGTON.

MOZ001>031-035>038-043-044-053-054-182200-
...NORTHERN AND WESTERN MISSOURI...

CITY           SKY/WX    TMP DP  RH WIND       PRES   REMARKS
KANSAS CTY INT MOSUNNY   50  32  50 NW15G29   29.98R
KANSAS C DTWN  SUNNY     51  30  44 NW22G32   29.98R
LEE`S SUMMIT   CLOUDY    49  31  49 NW21G32   29.97R
ST JOSEPH      MOSUNNY   50  32  50 NW22G32   29.99R
CHILLICOTHE      N/A     50  34  54 NW15G31   29.92R
KIRKSVILLE     CLOUDY    44  34  67 NW20G30   29.85R

$$
MOZ066>068-077>081-088>096-101>105-182200-
...SOUTHWEST MISSOURI...

CITY           SKY/WX    TMP DP  RH WIND       PRES   REMARKS
SPRINGFIELD    CLOUDY    45  41  86 NW16G29   29.93R
JOPLIN         CLOUDY    47  35  63 NW15G24   30.01R
BRANSON        LGT RAIN  45  39  81 NW17G36   29.94R

$$
MOZ032>034-039>042-045>050-055>058-069>072-182200-
...CENTRAL MISSOURI...

CITY           SKY/WX    TMP DP  RH WIND       PRES   REMARKS
COLUMBIA       CLOUDY    44  39  82 NW21G29   29.83R
JEFFERSON CITY CLOUDY    46  39  76 NW17G25   29.86R
ROLLA          CLOUDY    42  40  92 NW16G30   29.82R
SEDALIA        CLOUDY    47  37  68 NW20G26   29.92R
WHITEMAN AFB   PTSUNNY   47  33  57 NW15G22   29.89R
WARRENSBURG    CLOUDY    46  32  57 NW16G29   29.95R
OSAGE BEACH    CLOUDY    44  39  82 NW12G23   29.89R

$$
MOZ051-052-059>065-182200-
...EAST CENTRAL MISSOURI...

CITY           SKY/WX    TMP DP  RH WIND       PRES   REMARKS
ST LOUIS INTL  LGT RAIN  41  40  96 NW16G23   29.73R
SPIRIT OF STL  LGT RAIN  43  40  89 NW22G30   29.74R
ST CHARLES     LGT RAIN  42  39  89 NW21G32   29.72R

$$
MOZ072>076-082>087-097>100-106>115-182200-
...SOUTH CENTRAL AND SOUTHEAST MISSOURI...

CITY           SKY/WX    TMP DP  RH WIND       PRES   REMARKS
CAPE GIRARDEAU CLOUDY    49  40  71 NW26G40   29.62R
FARMINGTON     LGT RAIN  42  38  85 NW18G32   29.71R
POPLAR BLUFF   CLOUDY    52  40  63 NW25G40   29.66R
WEST PLAINS    LGT RAIN  46  36  68 NW32G47   29.84R

$$


USA.gov is the U.S. government's official web portal to all federal, state and local government web resources and services.